EW5860 Weather Reports


time (UTC)temp
F
wind
direction
speed
knots
gust
knots
rain 1hr
in
rain 24hr
in
rain mn
in
humidity
%
barometer
mb
20260901041511 69 192 0.0 2.6 0.02 0.04 0.01 97 1017.2
20260901040009 69 215 0.0 0.0 0.01 0.03 0.00 97 1017.4
20260901034518 69 215 0.0 0.0 0.01 0.03 0.03 97 1017.8
20260901033012 68 215 0.0 0.0 0.00 0.02 0.02 97 1017.9
20260901031517 68 215 0.0 0.0 0.00 0.02 0.02 97 1017.7
20260901030007 68 215 0.0 0.0 0.00 0.02 0.02 97 1017.8
20260901024506 68 215 0.0 0.0 0.00 0.02 0.02 97 1017.8
20260901023007 68 215 0.0 0.0 0.00 0.02 0.02 97 1017.8
20260901021505 68 215 0.0 0.0 0.00 0.02 0.02 97 1017.8
20260901020004 67 215 0.0 0.0 0.00 0.02 0.02 97 1017.7
20260901014504 67 215 0.0 0.0 0.00 0.09 0.02 97 1017.7
20260901013009 67 215 0.0 0.0 0.00 0.09 0.02 96 1017.7
20260901011503 68 215 0.0 0.0 0.00 0.09 0.02 96 1017.7
20260901010003 68 215 0.0 0.0 0.00 0.09 0.02 96 1017.7
20260901004503 68 215 0.0 0.0 0.00 0.11 0.02 95 1017.7
20260901003002 69 215 0.0 0.0 0.00 0.11 0.02 95 1017.6
20260901001502 69 215 0.0 0.0 0.00 0.11 0.02 95 1017.4
20260901000001 70 215 0.0 0.0 0.00 0.11 0.02 94 1017.3
20260831234502 70 215 0.0 0.0 0.00 0.11 0.02 93 1017.2
20260831233102 71 215 0.0 0.0 0.00 0.11 0.02 92 1017.2
20260831231559 73 215 0.0 0.0 0.00 0.11 0.02 91 1017.3
20260831230056 74 215 0.0 0.0 0.00 0.11 0.02 88 1017.5
20260831224554 76 215 0.0 0.0 0.00 0.11 0.02 86 1017.8
20260831223054 77 215 0.0 0.0 0.00 0.11 0.02 83 1017.8
20260831221614 77 215 0.0 0.0 0.00 0.11 0.02 83 1017.8
20260831220052 77 211 0.0 0.0 0.00 0.11 0.02 84 1017.8
20260831214549 76 211 0.0 0.9 0.00 0.11 0.02 81 1018.0
20260831213049 76 249 0.0 0.9 0.00 0.11 0.02 82 1018.1
20260831211547 76 256 0.0 0.0 0.00 0.11 0.02 81 1018.4
20260831210048 75 256 0.0 0.9 0.00 0.11 0.02 83 1018.5
20260831204545 75 219 0.0 0.9 0.00 0.11 0.02 91 1018.4
20260831203103 73 218 0.0 0.0 0.00 0.11 0.02 90 1018.5
20260831201550 74 218 0.0 0.0 0.00 0.11 0.02 92 1018.6
20260831200124 74 218 0.0 0.0 0.02 0.11 0.02 91 1018.8
20260831194542 74 219 0.0 0.0 0.02 0.11 0.02 90 1019.0
20260831193042 74 217 0.0 0.9 0.02 0.11 0.02 89 1019.1
20260831191544 75 138 0.0 0.9 0.02 0.11 0.02 84 1019.0
20260831190042 76 259 0.0 0.0 0.00 0.09 0.00 78 1019.4
20260831184545 76 259 0.0 0.9 0.00 0.09 0.00 76 1019.5
20260831183039 76 256 0.0 0.9 0.00 0.09 0.00 79 1019.4
20260831181548 77 203 0.0 0.0 0.00 0.09 0.00 78 1019.4
20260831180038 77 202 0.0 0.9 0.00 0.09 0.00 75 1019.3
20260831174548 78 265 0.0 0.0 0.00 0.09 0.00 75 1019.4
20260831173038 78 265 0.0 1.7 0.00 0.09 0.00 70 1019.6
20260831171536 78 241 0.0 1.7 0.00 0.09 0.00 70 1019.6
20260831170040 78 313 0.0 0.9 0.00 0.09 0.00 68 1019.6
20260831164534 78 256 0.0 1.7 0.00 0.09 0.00 69 1019.6
20260831163034 78 267 0.0 1.7 0.00 0.09 0.00 72 1019.6
20260831161531 78 103 0.9 2.6 0.00 0.09 0.00 72 1019.6
20260831160030 77 98 0.0 3.5 0.00 0.09 0.00 70 1019.7
20260831154528 77 115 0.0 1.7 0.00 0.09 0.00 73 1019.8
20260831153024 75 275 0.0 1.7 0.00 0.09 0.00 81 1019.9
20260831151521 74 281 0.0 0.9 0.00 0.09 0.00 83 1019.9
20260831150021 74 214 0.0 0.0 0.00 0.09 0.00 81 1020.0
20260831144518 73 214 0.0 0.0 0.00 0.09 0.00 82 1020.2
20260831143018 73 212 0.0 0.0 0.00 0.09 0.00 84 1020.1
20260831141512 72 258 0.0 0.0 0.00 0.09 0.00 86 1020.2
20260831140026 72 258 0.0 0.9 0.00 0.09 0.00 92 1020.2
20260831134508 71 302 0.0 0.0 0.00 0.09 0.00 95 1019.9
20260831133008 70 302 0.0 0.0 0.00 0.09 0.00 97 1019.9
20260831131506 70 302 0.0 0.0 0.00 0.09 0.00 97 1019.9
20260831130006 69 302 0.0 0.0 0.00 0.09 0.00 98 1020.0
20260831124505 69 303 0.0 0.0 0.00 0.09 0.00 98 1020.0
20260831123004 68 303 0.0 0.0 0.00 0.09 0.00 98 1020.0
20260831121502 68 304 0.0 0.0 0.00 0.09 0.00 98 1020.0
20260831120001 68 303 0.0 0.0 0.00 0.09 0.00 98 1019.9
20260831114500 68 304 0.0 0.0 0.00 0.09 0.00 98 1019.8
20260831113102 67 304 0.0 0.0 0.00 0.09 0.00 98 1019.8
20260831111558 67 303 0.0 0.0 0.00 0.09 0.00 98 1019.5
20260831110056 67 304 0.0 0.0 0.00 0.09 0.00 98 1019.4
20260831104604 67 304 0.0 0.0 0.00 0.09 0.00 98 1019.3
20260831103054 67 304 0.0 0.0 0.00 0.09 0.00 98 1019.3
20260831101559 67 303 0.0 0.0 0.00 0.09 0.00 98 1019.1
20260831100057 67 304 0.0 0.0 0.00 0.09 0.00 98 1018.9
20260831094553 67 303 0.0 0.0 0.00 0.09 0.00 98 1018.9
20260831093055 67 303 0.0 0.0 0.00 0.09 0.00 98 1018.7
20260831091548 68 303 0.0 0.0 0.00 0.09 0.00 98 1018.7
20260831090057 68 304 0.0 0.0 0.00 0.09 0.00 98 1018.6
20260831084556 68 304 0.0 0.0 0.00 0.09 0.00 98 1018.7
20260831083045 68 303 0.0 0.0 0.00 0.09 0.00 98 1018.7
20260831081544 68 304 0.0 0.0 0.00 0.09 0.00 98 1018.5
20260831080043 68 304 0.0 0.0 0.00 0.09 0.00 98 1018.5
20260831074542 69 304 0.0 0.0 0.00 0.09 0.00 97 1018.4
20260831073042 69 304 0.0 0.0 0.00 0.09 0.00 97 1018.5
20260831071539 69 303 0.0 0.0 0.00 0.09 0.00 97 1018.6
20260831070046 70 304 0.0 0.0 0.00 0.09 0.00 97 1018.5
20260831064538 70 303 0.0 0.0 0.00 0.09 0.00 97 1018.7
20260831063042 70 303 0.0 0.0 0.00 0.09 0.00 97 1018.9
20260831061537 70 303 0.0 0.0 0.00 0.09 0.00 97 1018.7
20260831060035 70 304 0.0 0.0 0.00 0.09 0.00 97 1018.6
20260831054534 70 304 0.0 0.0 0.00 0.09 0.00 97 1018.4
20260831053038 70 304 0.0 0.0 0.00 0.09 0.00 97 1018.5
20260831051537 71 304 0.0 0.0 0.00 0.09 0.00 97 1018.6
20260831050036 71 304 0.0 0.0 0.00 0.09 0.00 96 1018.6
20260831044530 71 304 0.0 0.0 0.00 0.09 0.00 96 1018.7
20260831043028 71 304 0.0 0.0 0.00 0.09 0.00 96 1018.6